GW5118 Weather Reports


time (UTC)temp
C
wind
direction
speed
KPH
gust
KPH
rain 1hr
cm
rain 24hr
cm
rain mn
cm
humidity
%
barometer
mb
20260504070344 5 192 0.0 0.0 0.00 0.00 0.00 80 1033.2
20260504050732 5 207 0.0 1.6 0.00 0.00 0.00 70 1033.6
20260504050229 5 206 1.6 1.6 0.00 0.00 0.00 70 1033.5
20260504045726 5 188 1.6 1.6 0.00 0.00 0.00 70 1033.4
20260504045221 5 126 0.0 0.0 0.00 0.00 0.00 69 1033.6
20260504044719 5 126 0.0 0.0 0.00 0.00 0.00 69 1033.5
20260504044216 5 126 0.0 0.0 0.00 0.00 0.00 69 1033.4
20260504043713 5 126 0.0 0.0 0.00 0.00 0.00 69 1033.5
20260504043210 5 126 0.0 0.0 0.00 0.00 0.00 68 1033.2
20260504042708 5 126 0.0 0.0 0.00 0.00 0.00 68 1033.5
20260504042204 6 126 0.0 1.6 0.00 0.00 0.00 66 1033.3
20260504041700 6 125 0.0 0.0 0.00 0.00 0.00 65 1033.3
20260504041155 6 126 0.0 1.6 0.00 0.00 0.00 64 1033.2
20260504040653 6 125 1.6 1.6 0.00 0.00 0.00 63 1033.2
20260504040150 6 125 0.0 0.0 0.00 0.00 0.00 63 1033.2
20260504035646 6 125 0.0 0.0 0.00 0.00 0.00 64 1033.4
20260504035143 6 125 0.0 0.0 0.00 0.00 0.00 63 1033.4
20260504034641 6 125 0.0 0.0 0.00 0.00 0.00 64 1033.2
20260504034138 6 125 0.0 0.0 0.00 0.00 0.00 63 1033.2
20260504033635 6 126 1.6 1.6 0.00 0.00 0.00 63 1033.0
20260504033133 6 126 1.6 1.6 0.00 0.00 0.00 62 1033.0
20260504032629 6 213 0.0 0.0 0.00 0.00 0.00 61 1033.0
20260504032126 7 213 0.0 0.0 0.00 0.00 0.00 61 1032.9
20260504031624 7 211 0.0 0.0 0.00 0.00 0.00 61 1032.9
20260504031120 7 212 0.0 0.0 0.00 0.00 0.00 61 1033.0
20260504030617 6 211 0.0 1.6 0.00 0.00 0.00 60 1032.9
20260504030113 6 211 1.6 3.2 0.00 0.00 0.00 59 1033.0
20260504025610 6 224 1.6 3.2 0.00 0.00 0.00 58 1033.2
20260504025107 7 207 3.2 3.2 0.00 0.00 0.00 58 1033.3
20260504024604 7 194 0.0 1.6 0.00 0.00 0.00 57 1033.0
20260504024101 7 184 1.6 1.6 0.00 0.00 0.00 57 1033.1
20260504023557 7 186 0.0 1.6 0.00 0.00 0.00 56 1033.1
20260504023053 7 186 0.0 1.6 0.00 0.00 0.00 54 1033.3
20260504022550 7 186 0.0 0.0 0.00 0.00 0.00 53 1033.4
20260504022046 8 186 0.0 0.0 0.00 0.00 0.00 52 1033.2
20260504021543 8 186 1.6 1.6 0.00 0.00 0.00 51 1033.1
20260504021040 8 195 1.6 1.6 0.00 0.00 0.00 51 1033.1
20260504020537 8 195 0.0 1.6 0.00 0.00 0.00 51 1033.1
20260504020034 8 192 1.6 1.6 0.00 0.00 0.00 49 1032.9
20260504015530 8 189 1.6 3.2 0.00 0.00 0.00 48 1032.8
20260504015026 8 214 1.6 3.2 0.00 0.00 0.00 47 1032.8
20260504014522 9 221 3.2 3.2 0.00 0.00 0.00 46 1032.8
20260504014020 10 217 3.2 3.2 0.00 0.00 0.00 45 1032.8
20260504013518 10 222 1.6 3.2 0.00 0.00 0.00 43 1032.5
20260504013014 10 230 0.0 0.0 0.00 0.00 0.00 40 1032.7
20260504012512 10 230 0.0 1.6 0.00 0.00 0.00 42 1032.8
20260504012010 10 230 1.6 1.6 0.00 0.00 0.00 43 1032.5
20260504011506 10 230 1.6 1.6 0.00 0.00 0.00 40 1032.3
20260504011001 10 234 1.6 1.6 0.00 0.00 0.00 38 1032.3
20260504010458 11 276 1.6 1.6 0.00 0.00 0.00 36 1032.3
20260504005953 11 277 0.0 0.0 0.00 0.00 0.00 37 1032.0
20260504005451 11 277 0.0 1.6 0.00 0.00 0.00 36 1032.1
20260504004948 11 277 0.0 0.0 0.00 0.00 0.00 35 1032.4
20260504004446 11 277 0.0 0.0 0.00 0.00 0.00 35 1032.3
20260504003943 11 277 0.0 1.6 0.00 0.00 0.00 34 1032.0
20260504003439 11 277 0.0 0.0 0.00 0.00 0.00 34 1032.0
20260504002935 11 277 0.0 0.0 0.00 0.00 0.00 33 1031.9
20260504002433 12 277 0.0 0.0 0.00 0.00 0.00 34 1032.1
20260504001930 12 277 0.0 0.0 0.00 0.00 0.00 33 1031.9
20260504001427 12 277 0.0 1.6 0.00 0.00 0.00 32 1031.9
20260504000924 13 277 0.0 1.6 0.00 0.00 0.00 32 1031.7
20260504000423 13 312 0.0 1.6 0.00 0.00 0.00 31 1031.8
20260503235918 13 263 0.0 0.0 0.00 0.00 0.00 30 1031.7
20260503235416 13 317 3.2 4.8 0.00 0.00 0.00 29 1031.9
20260503234914 14 297 0.0 1.6 0.00 0.00 0.00 28 1031.8
20260503234411 15 254 0.0 0.0 0.00 0.00 0.00 29 1032.0
20260503233909 15 254 0.0 0.0 0.00 0.00 0.00 27 1031.9
20260503233405 16 256 1.6 1.6 0.00 0.00 0.00 26 1031.9
20260503232901 16 194 0.0 3.2 0.00 0.00 0.00 26 1032.1
20260503232359 16 245 0.0 1.6 0.00 0.00 0.00 27 1032.0
20260503231856 16 325 3.2 9.7 0.00 0.00 0.00 25 1032.1
20260503231353 16 317 3.2 12.9 0.00 0.00 0.00 26 1032.1
20260503230849 16 267 3.2 11.3 0.00 0.00 0.00 26 1032.1
20260503230346 16 288 3.2 6.4 0.00 0.00 0.00 25 1032.1
20260503225844 16 254 3.2 12.9 0.00 0.00 0.00 27 1031.9
20260503225339 16 268 3.2 17.7 0.00 0.00 0.00 27 1032.0
20260503224836 17 281 0.0 6.4 0.00 0.00 0.00 30 1031.9
20260503224333 17 251 1.6 4.8 0.00 0.00 0.00 27 1032.1
20260503223831 17 281 1.6 9.7 0.00 0.00 0.00 29 1032.2
20260503223328 17 299 1.6 6.4 0.00 0.00 0.00 28 1032.0
20260503222824 17 230 3.2 4.8 0.00 0.00 0.00 28 1032.0
20260503222323 17 298 1.6 14.5 0.00 0.00 0.00 27 1032.0
20260503221820 17 252 0.0 3.2 0.00 0.00 0.00 27 1032.0
20260503221319 16 232 1.6 3.2 0.00 0.00 0.00 29 1032.0
20260503220814 16 324 1.6 3.2 0.00 0.00 0.00 27 1031.9
20260503220312 16 258 3.2 4.8 0.00 0.00 0.00 27 1032.0
20260503215808 16 213 3.2 6.4 0.00 0.00 0.00 27 1032.1
20260503215305 16 216 1.6 4.8 0.00 0.00 0.00 26 1032.2
20260503214803 16 179 1.6 4.8 0.00 0.00 0.00 25 1032.2
20260503214300 16 266 1.6 4.8 0.00 0.00 0.00 25 1032.2
20260503213758 16 345 3.2 11.3 0.00 0.00 0.00 26 1032.3
20260503213255 16 228 6.4 14.5 0.00 0.00 0.00 26 1032.3
20260503212752 16 245 3.2 4.8 0.00 0.00 0.00 27 1032.3
20260503212250 16 230 3.2 9.7 0.00 0.00 0.00 28 1032.3
20260503211747 16 247 4.8 6.4 0.00 0.00 0.00 26 1032.2
20260503211243 16 178 3.2 12.9 0.00 0.00 0.00 28 1032.3
20260503210738 16 267 3.2 9.7 0.00 0.00 0.00 29 1032.3
20260503210236 16 224 8.0 11.3 0.00 0.00 0.00 28 1032.4
20260503205731 16 221 11.3 14.5 0.00 0.00 0.00 28 1032.2
20260503205228 16 253 3.2 4.8 0.00 0.00 0.00 31 1032.4
20260503204724 16 237 6.4 12.9 0.00 0.00 0.00 29 1032.5
20260503204222 16 247 8.0 11.3 0.00 0.00 0.00 27 1032.4
20260503203719 16 218 11.3 16.1 0.00 0.00 0.00 26 1032.5
20260503203217 16 283 1.6 6.4 0.00 0.00 0.00 28 1032.5
20260503202714 16 258 1.6 11.3 0.00 0.00 0.00 25 1032.9
20260503202212 17 265 4.8 11.3 0.00 0.00 0.00 27 1032.9
20260503201709 16 273 3.2 6.4 0.00 0.00 0.00 30 1032.9
20260503201207 15 306 6.4 11.3 0.00 0.00 0.00 28 1033.0
20260503200703 15 348 1.6 4.8 0.00 0.00 0.00 28 1033.1
20260503200159 15 318 6.4 9.7 0.00 0.00 0.00 27 1033.1
20260503195656 16 286 3.2 6.4 0.00 0.00 0.00 30 1033.3
20260503195153 16 210 1.6 3.2 0.00 0.00 0.00 26 1033.3
20260503194650 15 238 1.6 3.2 0.00 0.00 0.00 31 1033.5
20260503194145 15 331 11.3 16.1 0.00 0.00 0.00 26 1033.6
20260503193642 15 330 6.4 14.5 0.00 0.00 0.00 31 1033.8
20260503193138 15 199 6.4 12.9 0.00 0.00 0.00 28 1033.8
20260503192634 15 36 4.8 4.8 0.00 0.00 0.00 26 1033.8
20260503192129 15 344 4.8 9.7 0.00 0.00 0.00 28 1033.9
20260503191626 16 330 12.9 14.5 0.00 0.00 0.00 27 1034.3
20260503191124 15 238 3.2 9.7 0.00 0.00 0.00 31 1034.2
20260503190620 15 270 6.4 12.9 0.00 0.00 0.00 27 1034.2
20260503190117 15 130 0.0 3.2 0.00 0.00 0.00 29 1034.2
20260503185614 14 183 9.7 24.1 0.00 0.00 0.00 28 1034.2
20260503185114 14 352 0.0 3.2 0.00 0.00 0.00 30 1034.3
20260503184609 15 53 6.4 6.4 0.00 0.00 0.00 31 1034.3
20260503184106 14 24 6.4 6.4 0.00 0.00 0.00 30 1034.5
20260503183603 13 100 3.2 11.3 0.00 0.00 0.00 29 1034.5
20260503183100 13 338 4.8 9.7 0.00 0.00 0.00 33 1034.6
20260503182559 13 320 4.8 11.3 0.00 0.00 0.00 30 1034.7
20260503182056 14 281 4.8 9.7 0.00 0.00 0.00 29 1034.9
20260503181553 13 282 6.4 11.3 0.00 0.00 0.00 30 1034.9
20260503181049 13 224 4.8 12.9 0.00 0.00 0.00 35 1034.9
20260503180547 13 339 12.9 22.5 0.00 0.00 0.00 29 1034.9
20260503180044 13 5 9.7 14.5 0.00 0.00 0.00 31 1035.0
20260503175541 14 178 1.6 3.2 0.00 0.00 0.00 28 1035.0
20260503175038 13 247 1.6 9.7 0.00 0.00 0.00 27 1035.2
20260503174536 13 273 4.8 12.9 0.00 0.00 0.00 30 1035.1
20260503174032 13 295 4.8 16.1 0.00 0.00 0.00 29 1035.2
20260503173527 13 285 3.2 6.4 0.00 0.00 0.00 29 1035.3
20260503173023 13 298 6.4 12.9 0.00 0.00 0.00 33 1035.4
20260503172521 12 242 4.8 9.7 0.00 0.00 0.00 35 1035.6
20260503172018 12 13 6.4 14.5 0.00 0.00 0.00 32 1035.5
20260503171514 13 268 3.2 12.9 0.00 0.00 0.00 31 1035.2
20260503171012 13 333 4.8 11.3 0.00 0.00 0.00 30 1035.3
20260503170508 13 300 6.4 12.9 0.00 0.00 0.00 32 1035.6
20260503150900 9 4 8.0 11.3 0.00 0.00 0.00 41 1036.5
20260503150356 9 332 9.7 16.1 0.00 0.00 0.00 40 1036.6
20260503131250 7 299 3.2 9.7 0.00 0.00 0.00 60 1036.7
20260503130748 7 304 4.8 14.5 0.00 0.00 0.00 62 1036.7
20260503130245 7 263 1.6 6.4 0.00 0.00 0.00 66 1036.6
20260503120211 5 202 0.0 1.6 0.00 0.00 0.00 75 1036.1
20260503110638 2 222 0.0 0.0 0.00 0.00 0.00 90 1035.4
20260503110136 1 222 0.0 0.0 0.00 0.00 0.00 90 1035.3
20260503081452 2 272 0.0 1.6 0.00 0.00 0.00 80 1033.6
20260503080949 2 321 1.6 4.8 0.00 0.00 0.00 81 1033.6
20260503080445 2 314 0.0 3.2 0.00 0.00 0.00 81 1033.4
20260503072921 2 261 1.6 1.6 0.00 0.00 0.00 82 1033.2